,,Stat5,,Stat1,,Stat2,,Stat3,,Stat4,,Wind1,,Wind1,
time,status,PA1M_AVG,status,PR1M_SUM,status,RH1M_AVG,status,SR1M_AVG,status,TA1M_AVG,status,W1dAve1m,status,W1sAve1m,
2001-10-25, 00:00:00,VALID,916.317,VALID,0,VALID,96.2986,VALID,0.0169808,VALID,19.9276,VALID,86,VALID,0.859992,
2001-10-25, 00:01:00,VALID,916.304,VALID,0,VALID,96.3088,VALID,0,VALID,19.9249,VALID,81,VALID,0.882589,
2001-10-25, 00:02:00,VALID,916.285,VALID,0,VALID,96.2503,VALID,0.0339617,VALID,19.9022,VALID,66,VALID,0.637587,
2001-10-25, 00:03:00,VALID,916.289,VALID,0,VALID,96.2706,VALID,-0.0849042,VALID,19.8809,VALID,54,VALID,0.63528,
2001-10-25, 00:04:00,VALID,916.287,VALID,0,VALID,96.3533,VALID,-0.101885,VALID,19.868,VALID,80,VALID,0.791071,
2001-10-25, 00:05:00,VALID,916.277,VALID,0,VALID,96.3902,VALID,-0.101885,VALID,19.8647,VALID,98,VALID,0.806891,
2001-10-25, 00:06:00,VALID,916.26,VALID,0,VALID,96.3724,VALID,-0.0849042,VALID,19.8747,VALID,117,VALID,0.775046,
2001-10-25, 00:07:00,VALID,916.253,VALID,0,VALID,96.3139,VALID,-0.118866,VALID,19.8647,VALID,113,VALID,1.09252,
2001-10-25, 00:08:00,VALID,916.24,VALID,0,VALID,96.2757,VALID,-0.0849042,VALID,19.8779,VALID,101,VALID,0.779119,
2001-10-25, 00:09:00,VALID,916.221,VALID,0,VALID,96.2185,VALID,-0.101885,VALID,19.8844,VALID,90,VALID,0.491976,
2001-10-25, 00:10:00,VALID,916.208,VALID,0,VALID,96.1397,VALID,-0.0849042,VALID,19.9005,VALID,90,VALID,0.528577,
2001-10-25, 00:11:00,VALID,916.186,VALID,0,VALID,96.0685,VALID,-0.101885,VALID,19.9037,VALID,91,VALID,0.707812,
2001-10-25, 00:12:00,VALID,916.165,VALID,0,VALID,96.0621,VALID,-0.101885,VALID,19.9037,VALID,104,VALID,0.821135,
2001-10-25, 00:13:00,VALID,916.134,VALID,0,VALID,96.0367,VALID,-0.101885,VALID,19.9266,VALID,107,VALID,0.951758,
2001-10-25, 00:14:00,VALID,916.116,VALID,0,VALID,95.9922,VALID,-0.101885,VALID,19.9328,VALID,98,VALID,0.80629,
2001-10-25, 00:15:00,VALID,916.101,VALID,0,VALID,95.9311,VALID,-0.0849042,VALID,19.949,VALID,86,VALID,0.82168,
2001-10-25, 00:16:00,VALID,916.087,VALID,0,VALID,95.8548,VALID,-0.101885,VALID,19.9455,VALID,74,VALID,0.604235,
2001-10-25, 00:17:00,VALID,916.079,VALID,0,VALID,95.776,VALID,-0.0849042,VALID,19.936,VALID,80,VALID,0.516992,
2001-10-25, 00:18:00,VALID,916.075,VALID,0,VALID,95.8027,VALID,-0.0169808,VALID,19.9413,VALID,85,VALID,0.538662,
2001-10-25, 00:19:00,VALID,916.055,VALID,0,VALID,95.8396,VALID,0.0169808,VALID,19.9313,VALID,99,VALID,0.685742,
2001-10-25, 00:20:00,VALID,916.052,VALID,0,VALID,95.8815,VALID,0,VALID,19.9281,VALID,125,VALID,0.56949,
2001-10-25, 00:21:00,VALID,916.045,VALID,0,VALID,95.879,VALID,0,VALID,19.938,VALID,120,VALID,0.667188,
2001-10-25, 00:22:00,VALID,916.028,VALID,0,VALID,95.8803,VALID,0,VALID,19.9415,VALID,115,VALID,0.88121,
2001-10-25, 00:23:00,VALID,916.013,VALID,0,VALID,95.8256,VALID,0,VALID,19.9477,VALID,91,VALID,0.616406,
2001-10-25, 00:24:00,VALID,916.01,VALID,0,VALID,95.598,VALID,0.0169808,VALID,19.9278,VALID,83,VALID,0.381168,
2001-10-25, 00:25:00,VALID,916,VALID,0,VALID,95.6463,VALID,0,VALID,19.902,VALID,92,VALID,0.581055,
2001-10-25, 00:26:00,VALID,915.973,VALID,0,VALID,95.7925,VALID,0.0169808,VALID,19.9117,VALID,98,VALID,0.713542,
2001-10-25, 00:27:00,VALID,915.962,VALID,0,VALID,95.912,VALID,0,VALID,19.9087,VALID,110,VALID,0.893555,
2001-10-25, 00:28:00,VALID,915.939,VALID,0,VALID,95.9298,VALID,0,VALID,19.9057,VALID,126,VALID,0.828947,
2001-10-25, 00:29:00,VALID,915.933,VALID,0,VALID,95.94,VALID,0.0169808,VALID,19.9025,VALID,123,VALID,1.01953,
2001-10-25, 00:30:00,VALID,915.907,VALID,0,VALID,95.8917,VALID,0,VALID,19.9087,VALID,119,VALID,0.763622,
2001-10-25, 00:31:00,VALID,915.902,VALID,0,VALID,95.8345,VALID,0,VALID,19.9084,VALID,106,VALID,0.749023,
2001-10-25, 00:32:00,VALID,915.892,VALID,0,VALID,95.7951,VALID,0.0339617,VALID,19.9219,VALID,103,VALID,0.840049,
2001-10-25, 00:33:00,VALID,915.884,VALID,0,VALID,95.7544,VALID,0.0339617,VALID,19.9179,VALID,79,VALID,0.724023,
2001-10-25, 00:34:00,VALID,915.857,VALID,0,VALID,95.617,VALID,0,VALID,19.9052,VALID,88,VALID,0.526643,
2001-10-25, 00:35:00,VALID,915.839,VALID,0,VALID,95.7162,VALID,-0.0169808,VALID,19.9124,VALID,106,VALID,0.955078,
2001-10-25, 00:36:00,VALID,915.807,VALID,0,VALID,95.7773,VALID,0,VALID,19.9092,VALID,108,VALID,0.810033,
2001-10-25, 00:37:00,VALID,915.793,VALID,0,VALID,95.8078,VALID,0.0169808,VALID,19.9055,VALID,107,VALID,0.845898,
2001-10-25, 00:38:00,VALID,915.787,VALID,0,VALID,95.7722,VALID,0.0169808,VALID,19.9084,VALID,109,VALID,0.180088,
2001-10-25, 00:39:00,VALID,915.775,VALID,0,VALID,95.6793,VALID,0,VALID,19.9122,VALID,102,VALID,0.105078,
2001-10-25, 00:40:00,VALID,915.766,VALID,0,VALID,95.659,VALID,0,VALID,19.9122,VALID,107,VALID,0.315584,
2001-10-25, 00:41:00,VALID,915.739,VALID,0,VALID,95.6386,VALID,0.0169808,VALID,19.9089,VALID,108,VALID,0.00859375,
2001-10-25, 00:42:00,VALID,915.732,VALID,0,VALID,95.6069,VALID,0.0169808,VALID,19.8891,VALID,110,VALID,0.137019,
2001-10-25, 00:43:00,VALID,915.716,VALID,0,VALID,95.5992,VALID,0,VALID,19.8896,VALID,113,VALID,0.0978516,
2001-10-25, 00:44:00,VALID,915.71,VALID,0,VALID,95.6437,VALID,0,VALID,19.8896,VALID,113,VALID,0.0561266,
2001-10-25, 00:45:00,VALID,915.702,VALID,0,VALID,95.7035,VALID,0,VALID,19.8866,VALID,113,VALID,0.0822266,
2001-10-25, 00:46:00,VALID,915.686,VALID,0,VALID,95.8574,VALID,0.0169808,VALID,19.8861,VALID,113,VALID,0.0719151,
2001-10-25, 00:47:00,VALID,915.662,VALID,0,VALID,95.9705,VALID,0.0169808,VALID,19.8824,VALID,113,VALID,0,
2001-10-25, 00:48:00,VALID,915.667,VALID,0,VALID,96.0189,VALID,-0.0679233,VALID,19.9032,VALID,113,VALID,0,
2001-10-25, 00:49:00,VALID,915.642,VALID,0,VALID,96.0087,VALID,-0.0849042,VALID,19.9137,VALID,113,VALID,0,
2001-10-25, 00:50:00,VALID,915.647,VALID,0,VALID,96.0252,VALID,-0.0679233,VALID,19.8975,VALID,113,VALID,0,
2001-10-25, 00:51:00,VALID,915.655,VALID,0,VALID,96.0265,VALID,-0.101885,VALID,19.8948,VALID,113,VALID,0,
2001-10-25, 00:52:00,VALID,915.652,VALID,0,VALID,95.9298,VALID,-0.118866,VALID,19.8652,VALID,113,VALID,0,
2001-10-25, 00:53:00,VALID,915.649,VALID,0,VALID,95.9438,VALID,-0.135847,VALID,19.8389,VALID,126,VALID,0.17793,
2001-10-25, 00:54:00,VALID,915.648,VALID,0,VALID,96.0964,VALID,-0.101885,VALID,19.8461,VALID,230,VALID,0.289663,
2001-10-25, 00:55:00,VALID,915.649,VALID,0,VALID,96.1867,VALID,-0.118866,VALID,19.8235,VALID,262,VALID,0.463672,
2001-10-25, 00:56:00,VALID,915.662,VALID,0,VALID,96.3177,VALID,-0.118866,VALID,19.8267,VALID,279,VALID,0.443462,
2001-10-25, 00:57:00,VALID,915.663,VALID,0,VALID,96.4016,VALID,-0.101885,VALID,19.8401,VALID,278,VALID,0.664258,
2001-10-25, 00:58:00,VALID,915.661,VALID,0,VALID,96.469,VALID,-0.101885,VALID,19.8138,VALID,284,VALID,0.563101,
2001-10-25, 00:59:00,VALID,915.655,VALID,0,VALID,96.5428,VALID,-0.0849042,VALID,19.8068,VALID,282,VALID,0.151562,
2001-10-25, 01:00:00,VALID,915.648,VALID,0,VALID,96.5148,VALID,-0.101885,VALID,19.7939,VALID,282,VALID,0.0779194,
2001-10-25, 01:01:00,VALID,915.636,VALID,0,VALID,96.5504,VALID,-0.0849042,VALID,19.7812,VALID,282,VALID,0,
2001-10-25, 01:02:00,VALID,915.617,VALID,0,VALID,96.6343,VALID,-0.101885,VALID,19.772,VALID,279,VALID,0.119591,
2001-10-25, 01:03:00,VALID,915.594,VALID,0,VALID,96.7195,VALID,-0.0679233,VALID,19.7616,VALID,276,VALID,0.0300781,
2001-10-25, 01:04:00,VALID,915.584,VALID,0,VALID,96.7717,VALID,-0.0509425,VALID,19.7546,VALID,258,VALID,0.155633,
2001-10-25, 01:05:00,VALID,915.568,VALID,0,VALID,96.7895,VALID,-0.0509425,VALID,19.7554,VALID,242,VALID,0.0470703,
2001-10-25, 01:06:00,VALID,915.571,VALID,0,VALID,96.8034,VALID,-0.0509425,VALID,19.7519,VALID,242,VALID,0,
2001-10-25, 01:07:00,VALID,915.559,VALID,0,VALID,96.7488,VALID,-0.0169808,VALID,19.7651,VALID,242,VALID,0,
2001-10-25, 01:08:00,VALID,915.529,VALID,0,VALID,96.6547,VALID,-0.0339617,VALID,19.7454,VALID,179,VALID,0.0914885,
2001-10-25, 01:09:00,VALID,915.513,VALID,0,VALID,96.6686,VALID,-0.0849042,VALID,19.7457,VALID,129,VALID,0.172656,
2001-10-25, 01:10:00,VALID,915.5,VALID,0,VALID,96.6801,VALID,-0.101885,VALID,19.7325,VALID,141,VALID,0.494391,
2001-10-25, 01:11:00,VALID,915.48,VALID,0,VALID,96.6623,VALID,-0.0509425,VALID,19.7293,VALID,140,VALID,0.662695,
2001-10-25, 01:12:00,VALID,915.452,VALID,0,VALID,96.6076,VALID,-0.0509425,VALID,19.736,VALID,126,VALID,0.488487,
2001-10-25, 01:13:00,VALID,915.446,VALID,0,VALID,96.6013,VALID,-0.0679233,VALID,19.7228,VALID,110,VALID,0.242773,
2001-10-25, 01:14:00,VALID,915.439,VALID,0,VALID,96.5618,VALID,-0.0849042,VALID,19.739,VALID,111,VALID,0.15625,
2001-10-25, 01:15:00,VALID,915.439,VALID,0,VALID,96.5072,VALID,-0.0849042,VALID,19.7454,VALID,119,VALID,0.449414,
2001-10-25, 01:16:00,VALID,915.407,VALID,0,VALID,96.5199,VALID,-0.0509425,VALID,19.7517,VALID,132,VALID,0.569285,
2001-10-25, 01:17:00,VALID,915.383,VALID,0,VALID,96.4538,VALID,-0.0679233,VALID,19.7678,VALID,133,VALID,0.864258,
2001-10-25, 01:18:00,VALID,915.35,VALID,0,VALID,96.3062,VALID,-0.0679233,VALID,19.7874,VALID,135,VALID,0.634615,
2001-10-25, 01:19:00,VALID,915.339,VALID,0,VALID,96.1804,VALID,-0.0679233,VALID,19.8033,VALID,134,VALID,0.50918,
2001-10-25, 01:20:00,VALID,915.322,VALID,0,VALID,96.0201,VALID,-0.0509425,VALID,19.8297,VALID,131,VALID,0.496094,
2001-10-25, 01:21:00,VALID,915.322,VALID,0,VALID,95.8052,VALID,-0.0339617,VALID,19.8458,VALID,117,VALID,0.375781,
2001-10-25, 01:22:00,VALID,915.298,VALID,0,VALID,95.5229,VALID,-0.0679233,VALID,19.8583,VALID,108,VALID,0.513622,
2001-10-25, 01:23:00,VALID,915.28,VALID,0,VALID,95.4543,VALID,-0.0679233,VALID,19.862,VALID,115,VALID,0.919336,
2001-10-25, 01:24:00,VALID,915.239,VALID,0,VALID,95.4009,VALID,-0.0849042,VALID,19.8747,VALID,125,VALID,0.933594,
2001-10-25, 01:25:00,VALID,915.203,VALID,0,VALID,95.3119,VALID,-0.0849042,VALID,19.9045,VALID,115,VALID,0.983008,
2001-10-25, 01:26:00,VALID,915.192,VALID,0,VALID,95.3106,VALID,-0.0679233,VALID,19.91,VALID,126,VALID,0.513622,
2001-10-25, 01:27:00,VALID,915.194,VALID,0,VALID,95.3462,VALID,-0.0679233,VALID,19.942,VALID,135,VALID,0.15293,
2001-10-25, 01:28:00,VALID,915.208,VALID,0,VALID,95.2216,VALID,-0.0849042,VALID,19.9457,VALID,49,VALID,0.393092,
2001-10-25, 01:29:00,VALID,915.206,VALID,0,VALID,95.2521,VALID,-0.0849042,VALID,19.9328,VALID,359,VALID,0.363477,
2001-10-25, 01:30:00,VALID,915.19,VALID,0,VALID,95.2495,VALID,-0.0339617,VALID,19.9423,VALID,50,VALID,0.721755,
2001-10-25, 01:31:00,VALID,915.147,VALID,0,VALID,95.0893,VALID,-0.0849042,VALID,19.9301,VALID,74,VALID,0.582617,
2001-10-25, 01:32:00,VALID,915.137,VALID,0,VALID,95.0308,VALID,-0.0849042,VALID,19.9142,VALID,173,VALID,0.375822,
2001-10-25, 01:33:00,VALID,915.139,VALID,0,VALID,95.1364,VALID,-0.0169808,VALID,19.8863,VALID,192,VALID,0.40918,
2001-10-25, 01:34:00,VALID,915.136,VALID,0,VALID,95.3347,VALID,0.0339617,VALID,19.8829,VALID,169,VALID,0.761018,
2001-10-25, 01:35:00,VALID,915.105,VALID,0,VALID,95.5229,VALID,0.0339617,VALID,19.8729,VALID,144,VALID,0.878711,
2001-10-25, 01:36:00,VALID,915.086,VALID,0,VALID,95.7086,VALID,0.0169808,VALID,19.8506,VALID,143,VALID,1.34478,
2001-10-25, 01:37:00,VALID,915.057,VALID,0,VALID,96.1079,VALID,0.0169808,VALID,19.8282,VALID,129,VALID,1.05195,
2001-10-25, 01:38:00,VALID,915.055,VALID,0,VALID,96.3622,VALID,0.0339617,VALID,19.7961,VALID,148,VALID,0.494992,
2001-10-25, 01:39:00,VALID,915.017,VALID,0,VALID,96.544,VALID,0,VALID,19.7604,VALID,145,VALID,0.561133,
2001-10-25, 01:40:00,VALID,914.992,VALID,0,VALID,96.7157,VALID,0.0339617,VALID,19.7278,VALID,123,VALID,0.445313,
2001-10-25, 01:41:00,VALID,914.98,VALID,0,VALID,96.8721,VALID,0.0169808,VALID,19.702,VALID,154,VALID,0.668555,
2001-10-25, 01:42:00,VALID,914.987,VALID,0,VALID,97.0679,VALID,0.0509425,VALID,19.6798,VALID,164,VALID,1.14724,
2001-10-25, 01:43:00,VALID,914.979,VALID,0,VALID,97.2193,VALID,0.0169808,VALID,19.6632,VALID,169,VALID,0.725586,
2001-10-25, 01:44:00,VALID,914.959,VALID,0,VALID,97.321,VALID,0.0509425,VALID,19.6406,VALID,145,VALID,0.559622,
2001-10-25, 01:45:00,VALID,914.929,VALID,0,VALID,97.4049,VALID,0.0169808,VALID,19.6381,VALID,113,VALID,0.398047,
2001-10-25, 01:46:00,VALID,914.914,VALID,0,VALID,97.5181,VALID,0.0169808,VALID,19.6048,VALID,73,VALID,0.146034,
2001-10-25, 01:47:00,VALID,914.908,VALID,0,VALID,97.5969,VALID,0.0339617,VALID,19.5991,VALID,74,VALID,0.275195,
2001-10-25, 01:48:00,VALID,914.898,VALID,0,VALID,97.6058,VALID,0.0169808,VALID,19.5695,VALID,102,VALID,0.559622,
2001-10-25, 01:49:00,VALID,914.879,VALID,0,VALID,97.6427,VALID,0,VALID,19.5566,VALID,104,VALID,0.958203,
2001-10-25, 01:50:00,VALID,914.848,VALID,0,VALID,97.78,VALID,0.0169808,VALID,19.5601,VALID,97,VALID,0.939103,
2001-10-25, 01:51:00,VALID,914.811,VALID,0,VALID,97.8284,VALID,0.0339617,VALID,19.5504,VALID,99,VALID,1.0623,
2001-10-25, 01:52:00,VALID,914.782,VALID,0,VALID,97.869,VALID,0,VALID,19.534,VALID,102,VALID,1.14391,
2001-10-25, 01:53:00,VALID,914.766,VALID,0,VALID,97.9199,VALID,0.0509425,VALID,19.5375,VALID,76,VALID,0.884961,
2001-10-25, 01:54:00,VALID,914.769,VALID,0,VALID,97.967,VALID,0,VALID,19.537,VALID,47,VALID,0.789864,
2001-10-25, 01:55:00,VALID,914.762,VALID,0,VALID,97.9492,VALID,0.0679233,VALID,19.5569,VALID,63,VALID,0.973633,
2001-10-25, 01:56:00,VALID,914.74,VALID,0,VALID,97.9085,VALID,0,VALID,19.5569,VALID,53,VALID,0.972245,
2001-10-25, 01:57:00,VALID,914.722,VALID,0,VALID,97.8373,VALID,0,VALID,19.5762,VALID,27,VALID,0.478711,
2001-10-25, 01:58:00,VALID,914.709,VALID,0,VALID,97.7546,VALID,0.0509425,VALID,19.569,VALID,39,VALID,0.145833,
2001-10-25, 01:59:00,VALID,914.696,VALID,0,VALID,97.6096,VALID,0.0169808,VALID,19.579,VALID,87,VALID,0.871289,
2001-10-25, 02:00:00,VALID,914.677,VALID,0,VALID,97.5321,VALID,0.0169808,VALID,19.5665,VALID,74,VALID,0.917146,
2001-10-25, 02:01:00,VALID,914.672,VALID,0,VALID,97.4748,VALID,0.0339617,VALID,19.5765,VALID,96,VALID,0.728125,
2001-10-25, 02:02:00,VALID,914.677,VALID,0,VALID,97.3909,VALID,0.0169808,VALID,19.5628,VALID,106,VALID,0.633614,
2001-10-25, 02:03:00,VALID,914.659,VALID,0,VALID,97.3451,VALID,0,VALID,19.5867,VALID,108,VALID,0.606055,
2001-10-25, 02:04:00,VALID,914.647,VALID,0,VALID,97.2256,VALID,-0.0509425,VALID,19.5901,VALID,105,VALID,0.737253,
2001-10-25, 02:05:00,VALID,914.628,VALID,0,VALID,97.0794,VALID,-0.0679233,VALID,19.6065,VALID,89,VALID,0.683594,
2001-10-25, 02:06:00,VALID,914.628,VALID,0,VALID,97.0094,VALID,-0.0679233,VALID,19.616,VALID,88,VALID,0.487179,
2001-10-25, 02:07:00,VALID,914.604,VALID,0,VALID,96.8632,VALID,-0.0339617,VALID,19.6254,VALID,95,VALID,0.612891,
2001-10-25, 02:08:00,VALID,914.579,VALID,0,VALID,96.7844,VALID,-0.0509425,VALID,19.6354,VALID,100,VALID,0.910979,
2001-10-25, 02:09:00,VALID,914.559,VALID,0,VALID,96.7144,VALID,-0.0509425,VALID,19.652,VALID,95,VALID,0.695898,
2001-10-25, 02:10:00,VALID,914.537,VALID,0,VALID,96.6051,VALID,-0.0339617,VALID,19.652,VALID,105,VALID,0.516827,
2001-10-25, 02:11:00,VALID,914.528,VALID,0,VALID,96.6038,VALID,-0.0169808,VALID,19.6488,VALID,126,VALID,0.768164,
2001-10-25, 02:12:00,VALID,914.507,VALID,0,VALID,96.5008,VALID,0,VALID,19.6615,VALID,118,VALID,1.03618,
2001-10-25, 02:13:00,VALID,914.488,VALID,0,VALID,96.3609,VALID,-0.0339617,VALID,19.6711,VALID,113,VALID,1.06309,
2001-10-25, 02:14:00,VALID,914.483,VALID,0,VALID,96.2172,VALID,-0.0849042,VALID,19.7102,VALID,109,VALID,0.753806,
2001-10-25, 02:15:00,VALID,914.466,VALID,0,VALID,96.0557,VALID,-0.0679233,VALID,19.7131,VALID,99,VALID,0.612305,
2001-10-25, 02:16:00,VALID,914.446,VALID,0,VALID,95.9782,VALID,-0.0339617,VALID,19.7194,VALID,95,VALID,0.819696,
2001-10-25, 02:17:00,VALID,914.422,VALID,0,VALID,96.0214,VALID,-0.0339617,VALID,19.7228,VALID,105,VALID,0.903125,
2001-10-25, 02:18:00,VALID,914.381,VALID,0,VALID,96.0532,VALID,-0.0169808,VALID,19.7231,VALID,111,VALID,0.85637,
2001-10-25, 02:19:00,VALID,914.357,VALID,0,VALID,96.0837,VALID,-0.0339617,VALID,19.7295,VALID,108,VALID,0.42793,
2001-10-25, 02:20:00,VALID,914.347,VALID,0,VALID,96.0888,VALID,0,VALID,19.7258,VALID,108,VALID,0.652138,
2001-10-25, 02:21:00,VALID,914.327,VALID,0,VALID,95.8001,VALID,-0.0509425,VALID,19.7164,VALID,106,VALID,0.87168,
2001-10-25, 02:22:00,VALID,914.298,VALID,0,VALID,95.4034,VALID,-0.0679233,VALID,19.7199,VALID,104,VALID,0.933494,
2001-10-25, 02:23:00,VALID,914.282,VALID,0,VALID,95.3436,VALID,-0.0509425,VALID,19.7715,VALID,114,VALID,0.806055,
2001-10-25, 02:24:00,VALID,914.265,VALID,0,VALID,95.2508,VALID,-0.0849042,VALID,19.8041,VALID,106,VALID,0.300576,
2001-10-25, 02:25:00,VALID,914.257,VALID,0,VALID,95.2788,VALID,0,VALID,19.8036,VALID,112,VALID,0.134766,
2001-10-25, 02:26:00,VALID,914.24,VALID,0,VALID,95.3627,VALID,-0.0339617,VALID,19.82,VALID,127,VALID,0.369992,
2001-10-25, 02:27:00,VALID,914.233,VALID,0,VALID,95.4288,VALID,-0.0169808,VALID,19.8133,VALID,136,VALID,0.471094,
2001-10-25, 02:28:00,VALID,914.236,VALID,0,VALID,95.4441,VALID,-0.0169808,VALID,19.7907,VALID,144,VALID,0.755551,
2001-10-25, 02:29:00,VALID,914.231,VALID,0,VALID,95.5713,VALID,-0.0169808,VALID,19.7678,VALID,150,VALID,0.778516,
2001-10-25, 02:30:00,VALID,914.217,VALID,0,VALID,95.6717,VALID,-0.0339617,VALID,19.7586,VALID,149,VALID,0.836739,
2001-10-25, 02:31:00,VALID,914.214,VALID,0,VALID,95.7773,VALID,-0.0679233,VALID,19.7425,VALID,136,VALID,0.790234,
2001-10-25, 02:32:00,VALID,914.195,VALID,0,VALID,95.7887,VALID,-0.0679233,VALID,19.7223,VALID,134,VALID,0.842516,
2001-10-25, 02:33:00,VALID,914.161,VALID,0,VALID,95.8078,VALID,-0.0509425,VALID,19.7427,VALID,147,VALID,0.728711,
2001-10-25, 02:34:00,VALID,914.154,VALID,0,VALID,95.809,VALID,-0.0339617,VALID,19.7355,VALID,145,VALID,0.519832,
2001-10-25, 02:35:00,VALID,914.167,VALID,0,VALID,95.837,VALID,-0.0509425,VALID,19.7228,VALID,125,VALID,0.528906,
2001-10-25, 02:36:00,VALID,914.139,VALID,0,VALID,95.8447,VALID,-0.0679233,VALID,19.7266,VALID,116,VALID,0.89926,
2001-10-25, 02:37:00,VALID,914.125,VALID,0,VALID,95.7811,VALID,-0.0509425,VALID,19.7069,VALID,110,VALID,0.900586,
2001-10-25, 02:38:00,VALID,914.118,VALID,0,VALID,95.6832,VALID,-0.0849042,VALID,19.6975,VALID,108,VALID,0.880409,
2001-10-25, 02:39:00,VALID,914.099,VALID,0,VALID,95.5178,VALID,-0.0849042,VALID,19.7069,VALID,115,VALID,0.988281,
2001-10-25, 02:40:00,VALID,914.088,VALID,0,VALID,95.3398,VALID,-0.0849042,VALID,19.7325,VALID,121,VALID,1.06271,
2001-10-25, 02:41:00,VALID,914.083,VALID,0,VALID,95.0931,VALID,-0.101885,VALID,19.7683,VALID,119,VALID,0.945703,
2001-10-25, 02:42:00,VALID,914.07,VALID,0,VALID,94.821,VALID,-0.0679233,VALID,19.8004,VALID,117,VALID,0.734175,
2001-10-25, 02:43:00,VALID,914.047,VALID,0,VALID,94.6379,VALID,-0.0169808,VALID,19.8359,VALID,127,VALID,0.453125,
2001-10-25, 02:44:00,VALID,914.033,VALID,0,VALID,94.5463,VALID,-0.0509425,VALID,19.8458,VALID,130,VALID,0.43051,
2001-10-25, 02:45:00,VALID,914.02,VALID,0,VALID,94.5374,VALID,-0.0679233,VALID,19.8558,VALID,125,VALID,0.510742,
2001-10-25, 02:46:00,VALID,914.001,VALID,0,VALID,94.6125,VALID,-0.0679233,VALID,19.8356,VALID,125,VALID,0.585737,
2001-10-25, 02:47:00,VALID,913.986,VALID,0,VALID,94.7218,VALID,-0.0679233,VALID,19.8456,VALID,125,VALID,0.338086,
2001-10-25, 02:48:00,VALID,913.958,VALID,0,VALID,94.718,VALID,0.0509425,VALID,19.8351,VALID,127,VALID,0.387336,
2001-10-25, 02:49:00,VALID,913.934,VALID,0,VALID,94.7066,VALID,0.0339617,VALID,19.8091,VALID,128,VALID,0.553516,
2001-10-25, 02:50:00,VALID,913.913,VALID,0,VALID,94.8833,VALID,0.0169808,VALID,19.7927,VALID,119,VALID,0.83774,
2001-10-25, 02:51:00,VALID,913.896,VALID,0,VALID,95.0334,VALID,0.0339617,VALID,19.7735,VALID,107,VALID,0.744336,
2001-10-25, 02:52:00,VALID,913.883,VALID,0,VALID,95.027,VALID,0.0679233,VALID,19.7541,VALID,103,VALID,0.780016,
2001-10-25, 02:53:00,VALID,913.879,VALID,0,VALID,94.9965,VALID,0.0509425,VALID,19.7382,VALID,120,VALID,0.664648,
2001-10-25, 02:54:00,VALID,913.863,VALID,0,VALID,94.9939,VALID,0,VALID,19.735,VALID,120,VALID,0.841747,
2001-10-25, 02:55:00,VALID,913.843,VALID,0,VALID,95.013,VALID,0.0169808,VALID,19.7348,VALID,126,VALID,0.826367,
2001-10-25, 02:56:00,VALID,913.838,VALID,0,VALID,95.0016,VALID,0.0169808,VALID,19.7477,VALID,118,VALID,0.797081,
2001-10-25, 02:57:00,VALID,913.824,VALID,0,VALID,94.9876,VALID,0,VALID,19.741,VALID,117,VALID,0.938281,
2001-10-25, 02:58:00,VALID,913.807,VALID,0,VALID,95.0652,VALID,0,VALID,19.7318,VALID,111,VALID,0.926883,
2001-10-25, 02:59:00,VALID,913.777,VALID,0,VALID,95.1847,VALID,0,VALID,19.7323,VALID,105,VALID,0.955664,
2001-10-25, 03:00:00,VALID,913.773,VALID,0,VALID,95.2495,VALID,0.0339617,VALID,19.7154,VALID,100,VALID,0.957237,
2001-10-25, 03:01:00,VALID,913.761,VALID,0,VALID,95.35,VALID,0.0169808,VALID,19.7124,VALID,110,VALID,1.00059,
2001-10-25, 03:02:00,VALID,913.737,VALID,0,VALID,95.4733,VALID,0.0169808,VALID,19.7025,VALID,115,VALID,0.99399,
2001-10-25, 03:03:00,VALID,913.734,VALID,0,VALID,95.528,VALID,-0.0169808,VALID,19.6957,VALID,118,VALID,1.03164,
2001-10-25, 03:04:00,VALID,913.727,VALID,0,VALID,95.5649,VALID,0,VALID,19.6863,VALID,110,VALID,1.02138,
2001-10-25, 03:05:00,VALID,913.707,VALID,0,VALID,95.6298,VALID,0.0169808,VALID,19.6605,VALID,111,VALID,1.04219,
2001-10-25, 03:06:00,VALID,913.685,VALID,0,VALID,95.6336,VALID,0.0169808,VALID,19.6572,VALID,121,VALID,0.65605,
2001-10-25, 03:07:00,VALID,913.676,VALID,0,VALID,95.6234,VALID,0.0339617,VALID,19.6443,VALID,111,VALID,0.675977,
2001-10-25, 03:08:00,VALID,913.655,VALID,0,VALID,95.6069,VALID,0,VALID,19.6257,VALID,115,VALID,0.73787,
2001-10-25, 03:09:00,VALID,913.641,VALID,0,VALID,95.7302,VALID,0.0169808,VALID,19.5996,VALID,112,VALID,0.753516,
2001-10-25, 03:10:00,VALID,913.634,VALID,0,VALID,95.8688,VALID,0.0339617,VALID,19.5832,VALID,104,VALID,0.683694,
2001-10-25, 03:11:00,VALID,913.609,VALID,0,VALID,95.9502,VALID,0,VALID,19.5675,VALID,103,VALID,0.9375,
2001-10-25, 03:12:00,VALID,913.611,VALID,0,VALID,95.9655,VALID,0,VALID,19.5578,VALID,119,VALID,0.830798,
2001-10-25, 03:13:00,VALID,913.598,VALID,0,VALID,95.9782,VALID,0,VALID,19.5313,VALID,118,VALID,0.882031,
2001-10-25, 03:14:00,VALID,913.595,VALID,0,VALID,96.0176,VALID,0,VALID,19.5216,VALID,118,VALID,0.785657,
2001-10-25, 03:15:00,VALID,913.576,VALID,0,VALID,96.0723,VALID,0.0509425,VALID,19.5091,VALID,116,VALID,0.835352,
2001-10-25, 03:16:00,VALID,913.562,VALID,0,VALID,96.174,VALID,0,VALID,19.4828,VALID,106,VALID,1.02447,
2001-10-25, 03:17:00,VALID,913.547,VALID,0,VALID,96.2287,VALID,0,VALID,19.4731,VALID,113,VALID,0.996484,
2001-10-25, 03:18:00,VALID,913.543,VALID,0,VALID,96.2579,VALID,0,VALID,19.4667,VALID,116,VALID,0.679688,
2001-10-25, 03:19:00,VALID,913.54,VALID,0,VALID,96.235,VALID,0,VALID,19.4699,VALID,119,VALID,0.892969,
2001-10-25, 03:20:00,VALID,913.547,VALID,0,VALID,96.2439,VALID,0,VALID,19.4535,VALID,129,VALID,0.740337,
2001-10-25, 03:21:00,VALID,913.532,VALID,0,VALID,96.2439,VALID,0.0169808,VALID,19.4632,VALID,128,VALID,0.843945,
2001-10-25, 03:22:00,VALID,913.513,VALID,0,VALID,96.2185,VALID,0,VALID,19.4766,VALID,125,VALID,0.772035,
2001-10-25, 03:23:00,VALID,913.511,VALID,0,VALID,96.1765,VALID,0,VALID,19.4803,VALID,114,VALID,0.89668,
2001-10-25, 03:24:00,VALID,913.487,VALID,0,VALID,96.1486,VALID,-0.0169808,VALID,19.4632,VALID,111,VALID,1.11863,
2001-10-25, 03:25:00,VALID,913.483,VALID,0,VALID,96.1244,VALID,0,VALID,19.4609,VALID,105,VALID,0.929688,
2001-10-25, 03:26:00,VALID,913.477,VALID,0,VALID,96.1397,VALID,0.0339617,VALID,19.4545,VALID,110,VALID,0.909856,
2001-10-25, 03:27:00,VALID,913.459,VALID,0,VALID,96.1562,VALID,0,VALID,19.4277,VALID,121,VALID,0.681641,
2001-10-25, 03:28:00,VALID,913.457,VALID,0,VALID,96.2249,VALID,0,VALID,19.4383,VALID,117,VALID,0.720806,
2001-10-25, 03:29:00,VALID,913.451,VALID,0,VALID,96.2554,VALID,0.0509425,VALID,19.4314,VALID,120,VALID,0.842188,
2001-10-25, 03:30:00,VALID,913.449,VALID,0,VALID,96.3139,VALID,0.0169808,VALID,19.4413,VALID,133,VALID,0.878005,
2001-10-25, 03:31:00,VALID,913.442,VALID,0,VALID,96.3876,VALID,0,VALID,19.4348,VALID,133,VALID,0.683789,
2001-10-25, 03:32:00,VALID,913.437,VALID,0,VALID,96.4309,VALID,0,VALID,19.4319,VALID,122,VALID,0.458676,